Location: Gwatt
(46.7204°N, 7.6223°E)
Time: 13:08:40
(UTC+00:00)

deb Explorer IX - Pass Details

Date: 24 January 2021
Orbit: 537 x 1102 km, 38.8° (Epoch: 01 March)

Event Time Altitude Azimuth Distance (km) Brightness Sun altitude
Rises 16:20:38 0° 216° (SW) 3,775 ? -0.7°
Reaches altitude 10° 16:24:08 10° 201° (SSW) 2,743 ? -1.3°
Maximum altitude 16:28:50 21° 156° (SSE) 1,947 ? -2.0°
Drops below altitude 10° 16:33:07 10° 109° (ESE) 2,470 ? -2.7°
Sets 16:36:03 0° 94° (E) 3,297 ? -3.1°
